Regional Weather Roundup
Issued by NWS

Home | Current Version | Previous Version | Graphics & Text | Print | Product List | Glossary On
Versions: 1 2 3 4 5 6 7 8 9 10 11 12 13 14 15 16 17 18 19 20 21 22 23 24 25 26 27 28 29 30 31 32 33 34 35 36 37 38 39 40 41 42 43 44 45 46 47 48 49 50
802
ASUS45 KSLC 222210
RWRUT

UTAH REGIONAL WEATHER ROUNDUP
NATIONAL WEATHER SERVICE SALT LAKE CITY UT
400 PM MDT WED MAR 22 2017

UTZ001>011-023>025-222300-

NORTHERN UTAH

CITY           SKY/WX    TMP DP  RH WIND       PRES   REMARKS
BRIGHAM CITY     N/A     55  42  60 N5        29.83R
DUGWAY         CLOUDY    61  41  46 E8        29.78F
HILL AFB       LGT RAIN  54  39  58 S12       29.85R
LOGAN          TSTM      54  46  74 N14       29.82F
OGDEN          LGT RAIN  56  42  59 S13       29.81F
SALT LAKE CITY CLOUDY    57  46  66 N20       29.80F
WENDOVER       CLOUDY    61  36  39 SE7       29.81S
HEBER CITY     CLOUDY    64  28  25 SW7       29.79F

$$

UTZ011>015-024>027-222300-

CENTRAL/NORTHEAST UTAH

CITY           SKY/WX    TMP DP  RH WIND       PRES   REMARKS
PROVO AIRPORT  CLOUDY    66  41  40 W8        29.78F
MOAB/CANYONLAN CLOUDY    72  24  16 S16       29.80F
DELTA          CLOUDY    64  30  27 SW28G33   29.79F
PRICE          CLOUDY    60  30  32 SW15G29   29.86F
RICHFIELD      PTSUNNY   59  34  38 SE14G21   29.84S HAZE
ROOSEVELT      PTSUNNY   64  30  27 W8        29.85F
VERNAL         CLOUDY    67  26  21 S14       29.82F

$$

UTZ013>016-019>022-027-222300-

SOUTHERN UTAH

CITY           SKY/WX    TMP DP  RH WIND       PRES   REMARKS
BRYCE CANYON   CLOUDY    49  32  52 SE15      29.97F
CEDAR CITY     CLOUDY    57  37  47 S20       29.88S
MILFORD        CLOUDY    63  33  32 SW24G32   29.82F
ST GEORGE      CLOUDY    71  40  32 W17       29.80F
HANKSVILLE     PTSUNNY   73  27  17 SW22G28   29.83F
KANAB          CLOUDY    55  45  67 S18G30    29.93F HAZE
BLANDING       CLOUDY    64  24  22 S6G22     30.02F

$$

REGIONAL REPORTS     COLORADO/ARIZONA

CITY           SKY/WX    TMP DP  RH WIND       PRES   REMARKS
CRAIG, CO      CLOUDY    67  20  16 S16G25    29.89F
GRAND JUNCTION CLOUDY    71  23  16 S22G28    29.86F
RIFLE, CO      CLOUDY    66  26  22 SW15G28   29.94S
MONTROSE, CO   CLOUDY    66  23  19 N9        29.94F
CORTEZ, CO     CLOUDY    69  19  15 S12       29.96F
COLORADO CITY  MOCLDY    66  36  32 SW12G17   29.90F
PAGE, AZ       CLOUDY    69  32  25 NW5       29.83F
GRAND CANYON   CLOUDY    60  34  37 SW23G37   29.98F
KINGMAN, AZ    CLOUDY    67  27  22 S22G32    29.89F
FLAGSTAFF, AZ  CLOUDY    53  37  54 SW18G25   30.03F

$$

REGIONAL REPORTS    NEVADA/IDAHO/WYOMING

CITY           SKY/WX    TMP DP  RH WIND       PRES   REMARKS
LAS VEGAS, NV  PTSUNNY   70  30  22 SW21G28   29.79F
ELY, NY        CLOUDY    55   9  16 S21G30    29.84F
ELKO, NV       RAIN      40  37  89 SW18G26   29.90R FOG     WCI  31
POCATELLO, ID  MOSUNNY   54  38  54 VRB5      29.89F
BURLEY, ID     MOSUNNY   54  33  45 N6        29.85F
FORT BRIDGER,    N/A     52  37  56 NW17G39   29.93R
EVANSTON, WY   LGT RAIN  44  36  73 N12       29.90F
ROCK SPRINGS,  CLOUDY    59  35  40 NE9       29.88F
KEMMERER, WY   DRIZZLE   39  36  87 W18G28    29.92F WCI  30

$$




USA.gov is the U.S. government's official web portal to all federal, state and local government web resources and services.